Location: *
(40.7873°S, 98.7174°E)
Time: 03:31:27
(UTC+00:00)

Hubble Space Telescope - Visible Passes

Search period start: 03 December 2023 00:00
Search period end: 13 December 2023 00:00
Orbit: 519 x 522 km, 28.5° (Epoch: 02 December)

Date Brightness Start Highest point End Pass type
(mag) Time Alt. Az. Time Alt. Az. Time Alt. Az.
03 Dec 2.9 20:00:13 12° NNE 20:00:13 12° NNE 20:01:10 10° NE visible
04 Dec 3.2 19:44:40 11° NE 19:44:40 11° NE 19:44:51 10° NE visible
05 Dec 2.7 21:04:31 10° NW 21:06:24 13° N 21:08:16 10° NNE visible
06 Dec 2.7 20:48:50 11° NNW 20:49:51 12° N 20:51:30 10° NNE visible
07 Dec 2.8 20:33:39 11° N 20:33:39 11° N 20:34:39 10° N visible
